Regional Weather Roundup
Issued by NWS

Home | Current Version | Previous Version | Text Only | Print | Product List | Glossary On
Versions: 1 2 3 4 5 6 7 8 9 10 11 12 13 14 15 16 17 18 19 20 21 22 23 24 25 26 27 28 29 30 31 32 33 34 35 36 37 38 39 40 41 42 43 44 45 46 47 48 49 50
766
ASUS44 KLIX 261010
RWRLA
LOUISIANA WEATHER ROUNDUP
NATIONAL WEATHER SERVICE NEW ORLEANS LA
500 AM CDT SAT JUL 26 2014

NOTE: "FAIR" INDICATES FEW OR NO CLOUDS BELOW 12,000 FEET WITH NO
      SIGNIFICANT WEATHER AND/OR OBSTRUCTIONS TO VISIBILITY.
      SKY/WX - SKY CONDITION AND SIGNIFICANT WEATHER.
      TMP - AIR TEMPERATURE.    DP   - DEWPOINT TEMPERATURE.
      RH  - RELATIVE HUMIDITY.  PRES - PRESSURE.
      HX  - HEAT INDEX.         WCI  - WIND CHILL INDEX.

*  THESE STATIONS ARE NOT NWS OR FAA STATIONS AND ARE NOT UNDER
   NWS QUALITY CONTROL.

LAZ040-048-061>063-065-066-069-261100-
SOUTHEAST LOUISIANA

CITY           SKY/WX    TMP DP  RH WIND       PRES   REMARKS
N.O. AUDUBON   NOT AVBL
N.O. INTL ARPT PTCLDY    78  75  90 SW5       30.02R
N.O. LAKEFRONT PTCLDY    81  76  84 W7        30.03R
N.O. DOWNTOWN* FAIR      81  72  74 CALM      30.02S
SLIDELL        CLEAR     76  73  91 CALM      30.01R
BATON ROUGE    PTCLDY    78  74  87 SW6       30.02R
BOOTHVILLE     CLEAR     82  76  81 W7        30.03R
BELLE CHASSE   CLEAR     76  72  87 CALM      30.01R
BOGALUSA*      FAIR      76  73  89 CALM      30.03R
GALLIANO*      NOT AVBL
NEW ROADS*     FAIR      75  74  97 CALM      30.01S FOG
GONZALES*      FAIR      76  76 100 CALM      30.02R
HAMMOND*       CLEAR     77  73  88 CALM      30.03R
HOUMA*         PTCLDY    76  73  90 CALM      30.02R
PORT FOURCHON* MOSUNNY   82  75  78 SW8       30.04R

$$

LAZ041-044-053-054-261100-
SOUTHWEST LOUISIANA

CITY           SKY/WX    TMP DP  RH WIND       PRES   REMARKS
LAKE CHARLES   CLEAR     78  76  93 CALM      30.00R
LAFAYETTE      PTCLDY    78  76  93 CALM      30.02R
PATTERSON      MOCLDY    75  75 100 CALM      30.05S
SALT POINT       N/A     86  76  71 W6        30.01R HX  96
NEW IBERIA     PTCLDY    77  75  93 SW3       30.02R
CHENAULT AIRPK NOT AVBL

$$

LAZ027-028-261100-
CENTRAL LOUISIANA

CITY           SKY/WX    TMP DP  RH WIND       PRES   REMARKS
FORT POLK      CLEAR     77  75  93 SW3       30.01R
ALEXANDRIA INT CLEAR     75  73  93 SW3       29.98S FOG
ALEXANDRIA     FOG       75  73  93 CALM      30.00R VSB 3/4

$$

LAZ001-002-261100-
NORTHWEST LOUISIANA

CITY           SKY/WX    TMP DP  RH WIND       PRES   REMARKS
SHREVEPORT     PTCLDY    77  72  84 SW3       29.98R
BARKSDALE AFB  CLEAR     74  72  95 SE5       29.98S
DTN SHREVEPORT CLEAR     78  72  81 SW6       29.98R

$$

LAZ014-016-261100-
NORTHEAST LOUISIANA

CITY           SKY/WX    TMP DP  RH WIND       PRES   REMARKS
MONROE         FOG       73  72  94 CALM      30.00R VSB 1
TALLULAH       CLEAR     72  70  93 SE3       30.00R FOG

$$




USA.gov is the U.S. government's official web portal to all federal, state and local government web resources and services.